Powrót do katalogu

THORAD DELTA 1 DEB

AktywnySSO
NORAD 42625·DEBRIS·🇺🇸 United States

Wystrzelony Nov 15, 1974 z Vandenberg Space Force Base

Loading…

Następne Przeloty (najbliższe 24 godziny)

TLE

ŚwieżeSource: Space-Track

Epoka: Sep 11, 2026, 21:26 UTC

1 42625U 74089GS  26254.89338522  .00000057  00000-0  72475-3 0  9996
2 42625 102.0449 230.8375 0005248  29.7604 358.0860 12.44295626582776

Śledź THORAD DELTA 1 DEB w czasie rzeczywistym z AllMySat

Download on the App Store